Miscellaneous Local Product
Issued by NWS North Platte, NE

Home | Current Version | Previous Version | Graphics & Text | Print | Product List | Glossary On
Versions: 1 2 3 4 5 6 7 8 9 10 11 12 13 14 15 16 17 18 19 20 21 22 23 24 25 26 27 28 29 30 31 32 33 34 35 36 37 38 39 40 41 42 43 44 45 46 47 48 49 50
227
AXUS43 KLBF 070010
MISLBF


WESTERN AND NORTH CENTRAL NEBRASKA HOURLY WEATHER ROUNDUP
NATIONAL WEATHER SERVICE NORTH PLATTE NE
600 PM CST TUE DEC 06 2016

NOTE: "FAIR" INDICATES FEW OR NO CLOUDS BELOW 12,000 FEET WITH NO
SIGNIFICANT WEATHER AND/OR OBSTRUCTIONS TO VISIBILITY.

NOTE: STATIONS NOT REPORTING VARIABLES SUCH AS SKY/WEATHER OR
PRESSURE ARE PROVIDED BY RAWS AND APRS NETWORKS AND ARE NOT UNDER
NATIONAL WEATHER SERVICE QUALITY CONTROL.

...OBSERVATIONS IN AND NEAR THE EASTERN PANHANDLE OF NEBRASKA...

CITY           SKY/WX    TMP DP  RH WIND       PRES   REMARKS
PINE RIDGE     CLEAR      9   3  77 NE3       30.00R
CHADRON        CLOUDY    14   1  56 W8        30.01R WCI   3
ALLIANCE       CLOUDY    17   4  56 N8        29.96R WCI   7
SIDNEY         CLOUDY    23  -1  35 NE7       29.93R WCI  15
$$

...OBSERVATIONS IN NORTHERN NEBRASKA AND FAR SOUTHERN SOUTH DAKOTA...

CITY           SKY/WX    TMP DP  RH WIND       PRES   REMARKS
WINNER         FAIR      15   5  64 NW15      30.04R WCI   0
VALENTINE      CLEAR     16   3  56 NW12      30.03R WCI   3
THEDFORD       CLEAR     21   4  48 N5        30.02R WCI  14
AINSWORTH      CLEAR     18   7  61 NW13      30.01R WCI   5
O`NEILL        CLEAR     21   8  57 W10       30.03R WCI   9
ORD            CLEAR     23   2  40 NW9       30.04R WCI  13
BROKEN BOW     CLEAR     20   5  52 N10       30.02R WCI   9
VALENTINE NWR    N/A     19   2  47 NW12G21     N/A  WCI   7
BUTTE            N/A     15   6  67 NW12        N/A  WCI   2
HALSEY           N/A     23   0  37 N3G13       N/A
CHAMBERS         N/A     21   3  45 N3          N/A
EWING            N/A     22   9  56 NW10        N/A  WCI  11
$$

...OBSERVATIONS IN SOUTHWEST NEBRASKA AND FAR NORTHEAST COLORADO...

CITY           SKY/WX    TMP DP  RH WIND       PRES   REMARKS
WRAY           CLOUDY    32  -6  19 CALM      29.95
HOLYOKE        FAIR      27   0  31 E6        29.96R WCI  20
IMPERIAL       MOCLDY    24   2  38 E6        29.99R WCI  17
OGALLALA       CLOUDY    23   5  45 CALM      29.99R
NORTH PLATTE   CLEAR     20   2  45 N6        30.01R WCI  12
MCCOOK         PTCLDY    30   2  30 NW3       30.03R
LEXINGTON      CLEAR     24   8  50 W3        30.02R
STAPLETON        N/A     21   3  46 CALM        N/A
GOTHENBURG       N/A     30   5  34 CALM        N/A
CALLAWAY         N/A     24   4  42 N6          N/A  WCI  17
$$

...OBSERVATIONS IN CENTRAL LINCOLN COUNTY AREA...

CITY           SKY/WX    TMP DP  RH WIND       PRES   REMARKS
N.P. AIRPORT   CLEAR     20   2  45 N6        30.01R WCI  12
N.P. DOWNTOWN    N/A     26   5  40 CALM        N/A
N.P. SOUTHEAST   N/A     27   4  37 CALM        N/A
N.P. HILLCREST   N/A     23   2  40 N6          N/A  WCI  16
$$

...SOME OBSERVATIONS FROM AROUND THE REGION...

CITY           SKY/WX    TMP DP  RH WIND       PRES   REMARKS
LARAMIE        LGT SNOW  11   7  84 SE15      29.71R FOG     WCI  -5
CHEYENNE       LGT SNOW  17  10  74 S10       29.81R WCI   5
DENVER         CLOUDY    24   3  40 S20G25    29.81F WCI  10
AKRON          CLOUDY    24 -12  20 SE7       29.89S WCI  16
SCOTTSBLUFF    CLOUDY    21   2  43 N8        29.96R WCI  11
RAPID CITY     CLEAR      9   0  67 NW12      30.02R WCI  -6
BISMARCK       CLOUDY     7   3  84 W20G32    29.98R WCI -13
PIERRE         CLOUDY    12   4  70 NW36G43   30.03R WCI -11
SIOUX FALLS    PTCLDY    17   9  70 W21G33    29.94R WCI   0
OMAHA          CLEAR     31  10  41 W13       30.05R WCI  21
GRAND ISLAND   CLEAR     24   9  52 W5        30.06R WCI  18
KANSAS CITY    PTCLDY    30  11  45 W6        30.09R WCI  24
WICHITA        CLOUDY    36  14  40 N5        30.11R WCI  32
OKLAHOMA CITY  CLOUDY    41  21  44 N10       30.07S
DALLAS         CLOUDY    48  39  71 N6        30.04S
AMARILLO       CLOUDY    32  10  40 SE9       30.01S WCI  24
DODGE CITY     PTCLDY    29  11  47 SE7       30.06R WCI  22
HAYS           PTCLDY    32  11  41 SE3       30.08R
GOODLAND       MOCLDY    21  -1  38 SE6       29.96S WCI  13
$$




USA.gov is the U.S. government's official web portal to all federal, state and local government web resources and services.